Cozieni, Romania

4:05 PM EEST on May 29, 2017 (GMT +0300)
Cozieni

Weather History for 15420 - April, 2009

Change the Weather History Date:

Tuesday, April 28, 2009

  Actual Average Record
Temperature  
Mean Temperature 50 °F -  
Max Temperature 70 °F 73 °F - ()
Min Temperature 31 °F 50 °F - ()
Degree Days  
Heating Degree Days 14    
Moisture  
Dew Point 34 °F    
Average Humidity 49    
Maximum Humidity 100    
Minimum Humidity 12    
Precipitation  
Precipitation 0.00 in 0.09 in - ()
Sea Level Pressure  
Sea Level Pressure 30.05 in    
Wind  
Wind Speed 4 mph ()    
Max Wind Speed 14 mph    
Max Gust Speed -    
Visibility 6.0 miles    
Events      
T = Trace of Precipitation, MM = Missing Value Source: Averaged Metar Reports

Daily Weather History Graph

Daily Weather History Graph

Search for Another Location

Airport or City:

Trip Planner

Search our weather history database for the weather conditions in past years. The results will help you decide how hot, cold, wet, or windy it might be!

Date:

Astronomy

Apr. 28, 2009 Rise Set
Actual Time 6:10 AM EEST 8:16 PM EEST
Civil Twilight 5:39 AM EEST 8:48 PM EEST
Nautical Twilight 5:00 AM EEST 9:27 PM EEST
Astronomical Twilight 4:17 AM EEST 10:10 PM EEST
Moon 8:06 AM EEST (4/28) No Moon Set
Length of Visible Light 15h 09m
Length of Day
14h 05m
Waxing Crescent, 14% of the Moon is Illuminated
Apr 28
Waxing Crescent
May 1
First Quarter
May 9
Full
May 17
Last Quarter
May 24
New

Hourly Weather History & Observations

Time (EEST) Temp. Windchill Dew Point Humidity Pressure Visibility Wind Dir Wind Speed Gust Speed Precip Events Conditions
12:00 AM 41 °F - 31 °F 57% 30.22 in 6 mi East 2.2 mph - -  
12:00 AM 50.0 °F - 35.6 °F 58% 30.15 in - ENE 2.3 mph - N/A   Clear
12:30 AM 50.0 °F - 35.6 °F 58% 30.15 in - ENE 3.5 mph - N/A   Clear
1:00 AM 37 °F - 34 °F 86% 30.21 in 6 mi ENE 2.2 mph - -  
1:00 AM 48.2 °F - 35.6 °F 62% 30.15 in - NE 3.5 mph - N/A   Clear
1:30 AM 46.4 °F 45.2 °F 35.6 °F 66% 30.15 in - ENE 3.5 mph - N/A   Clear
2:00 AM 35 °F - 34 °F 94% 30.20 in 6 mi ENE 2.2 mph - -  
2:00 AM 44.6 °F 43.1 °F 35.6 °F 71% 30.15 in - NE 3.5 mph - N/A   Clear
2:30 AM 42.8 °F 41.1 °F 35.6 °F 76% 30.15 in - NNE 3.5 mph - N/A   Clear
3:00 AM 35 °F - 34 °F 94% 30.19 in 6 mi NNE 2.2 mph - -  
3:00 AM 42.8 °F - 35.6 °F 76% 30.12 in - Variable 1.2 mph - N/A   Clear
3:30 AM 42.8 °F - 35.6 °F 76% 30.12 in - Calm Calm - N/A   Clear
4:00 AM 33 °F - 33 °F 100% 30.17 in 6 mi North 4.5 mph - -  
4:00 AM 42.8 °F - 33.8 °F 70% 30.12 in - NNE 2.3 mph - N/A   Clear
4:30 AM 41.0 °F - 33.8 °F 76% 30.12 in - NNE 2.3 mph - N/A   Clear
5:00 AM 38 °F - 38 °F 99% 30.16 in 6 mi North 4.5 mph - -  
5:00 AM 41.0 °F 39.0 °F 33.8 °F 76% 30.09 in - North 3.5 mph - N/A   Clear
5:30 AM 41.0 °F - 33.8 °F 76% 30.09 in - NNE 1.2 mph - N/A   Clear
6:00 AM 33 °F - 30 °F 86% 30.15 in 6 mi Calm Calm - -  
6:00 AM 41.0 °F - 33.8 °F 76% 30.09 in - North 2.3 mph - N/A   Clear
6:30 AM 39.2 °F 37.0 °F 33.8 °F 81% 30.09 in - NNE 3.5 mph - N/A   Clear
7:00 AM 33 °F - 32 °F 94% 30.14 in 6 mi Calm Calm - -  
7:00 AM 41.0 °F - 35.6 °F 81% 30.09 in - NNE 1.2 mph - N/A   Clear
7:30 AM 44.6 °F - 35.6 °F 71% 30.09 in - Calm Calm - N/A   Clear
8:00 AM 43 °F - 40 °F 84% 30.13 in 6 mi NNE 2.2 mph - -  
8:00 AM 48.2 °F - 37.4 °F 66% 30.09 in - Variable 2.3 mph - N/A   Clear
8:30 AM 50.0 °F - 35.6 °F 58% 30.09 in - NE 3.5 mph - N/A   Clear
9:00 AM 50 °F - 32 °F 38% 30.14 in 6 mi NNE 4.5 mph - -  
9:00 AM 51.8 °F - 37.4 °F 58% 30.09 in - NE 3.5 mph - N/A   Clear
9:30 AM 55.4 °F - 39.2 °F 54% 30.09 in - ENE 4.6 mph - N/A   Clear
10:00 AM 55 °F - 32 °F 30% 30.14 in 6 mi East 4.5 mph - -  
10:00 AM 57.2 °F - 37.4 °F 48% 30.09 in - ENE 6.9 mph - N/A   Clear
10:30 AM 57.2 °F - 37.4 °F 48% 30.09 in - ENE 6.9 mph - N/A   Clear
11:00 AM 62 °F - 32 °F 21% 30.13 in 6 mi ENE 4.5 mph - -  
11:00 AM 60.8 °F - 33.8 °F 36% 30.09 in - ENE 8.1 mph - N/A   Clear
11:30 AM 64.4 °F - 35.6 °F 34% 30.06 in - ENE 9.2 mph - N/A   Clear
12:00 PM 64 °F - 30 °F 17% 30.11 in 6 mi ENE 6.7 mph - -  
12:00 PM 64.4 °F - 35.6 °F 34% 30.06 in - NE 10.4 mph - N/A   Clear
12:30 PM 66.2 °F - 33.8 °F 30% 30.06 in - ENE 11.5 mph - N/A   Clear
1:00 PM 67 °F - 29 °F 14% 30.09 in 6 mi East 8.9 mph - -  
1:00 PM 68.0 °F - 33.8 °F 28% 30.04 in - NE 13.8 mph - N/A   Clear
1:30 PM 68.0 °F - 35.6 °F 30% 30.04 in - ENE 13.8 mph - N/A   Clear
2:00 PM 68 °F - 28 °F 13% 30.06 in 6 mi East 11.2 mph - -  
2:00 PM 68.0 °F - 33.8 °F 28% 30.01 in - East 11.5 mph - N/A   Clear
2:30 PM 69.8 °F - 35.6 °F 28% 30.01 in - ENE 11.5 mph - N/A   Clear
3:00 PM 69 °F - 29 °F 13% 30.04 in 6 mi East 8.9 mph - -  
3:00 PM 69.8 °F - 35.6 °F 28% 30.01 in - ESE 11.5 mph - N/A   Clear
3:30 PM 69.8 °F - 33.8 °F 27% 29.98 in - ENE 9.2 mph - N/A   Clear
4:00 PM 70 °F - 29 °F 12% 30.01 in 6 mi East 6.7 mph - -   Clear
4:00 PM 69.8 °F - 35.6 °F 28% 29.98 in - East 8.1 mph - N/A   Clear
4:30 PM 69.8 °F - 33.8 °F 27% 29.95 in - East 12.7 mph - N/A   Clear
5:00 PM 70 °F - 28 °F 12% 29.99 in 6 mi ESE 8.9 mph - -   Clear
5:00 PM 69.8 °F - 33.8 °F 27% 29.95 in - East 12.7 mph - N/A   Clear
5:30 PM 69.8 °F - 35.6 °F 28% 29.95 in - ENE 10.4 mph - N/A   Clear
6:00 PM 69 °F - 29 °F 12% 29.97 in 6 mi East 8.9 mph - -   Clear
6:00 PM 69.8 °F - 35.6 °F 28% 29.95 in - East 11.5 mph - N/A   Clear
6:30 PM 68.0 °F - 35.6 °F 30% 29.92 in - ESE 9.2 mph - N/A   Clear
7:00 PM 67 °F - 28 °F 13% 29.96 in 6 mi ESE 6.7 mph - -   Clear
7:00 PM 66.2 °F - 35.6 °F 32% 29.92 in - East 8.1 mph - N/A   Clear
7:30 PM 64.4 °F - 35.6 °F 34% 29.92 in - East 4.6 mph - N/A   Clear
8:00 PM 62 °F - 27 °F 15% 29.96 in 6 mi East 4.5 mph - -   Clear
8:00 PM 62.6 °F - 35.6 °F 37% 29.92 in - NE 4.6 mph - N/A   Clear
8:30 PM 60.8 °F - 37.4 °F 42% 29.92 in - NE 4.6 mph - N/A   Clear
9:00 PM 52 °F - 33 °F 35% 29.96 in 6 mi ENE 2.2 mph - -   Clear
9:00 PM 59.0 °F - 37.4 °F 45% 29.92 in - NE 2.3 mph - N/A   Clear
9:30 PM 59.0 °F - 37.4 °F 45% 29.92 in - NE 4.6 mph - N/A   Clear
10:00 PM 49 °F - 35 °F 47% 29.96 in 6 mi East 2.2 mph - -   Clear
10:00 PM 57.2 °F - 37.4 °F 48% 29.92 in - NE 3.5 mph - N/A   Clear
10:30 PM 57.2 °F - 37.4 °F 48% 29.92 in - ENE 2.3 mph - N/A   Clear
11:00 PM 48 °F - 36 °F 53% 29.96 in 6 mi East 2.2 mph - -   Clear
11:00 PM 57.2 °F - 37.4 °F 48% 29.92 in - ENE 4.6 mph - N/A   Clear
11:30 PM 55.4 °F - 37.4 °F 51% 29.92 in - ENE 3.5 mph - N/A   Clear